Location: Sagn�
(15.2046°N, 12.7898°W)
Time: 13:21:38
(UTC+00:00)

Cosmos 841 Rocket - Pass Details

Date: 08 May 2021
Orbit: 748 x 771 km, 74.0° (Epoch: 14 June)

Event Time Altitude Azimuth Distance (km) Brightness Sun altitude
Rises 20:32:06 0° 353° (N) 3,187 7.2 -19.1°
Reaches altitude 10° 20:34:30 10° 358° (N) 2,260 6.3 -19.6°
Maximum altitude 20:39:31 57° 76° (ENE) 878 3.5 -20.7°
Enters shadow 20:40:37 46° 121° (ESE) 992 3.6 -21.0°
